Temp
8 8 9 9 9 10 10 10 11 11 11 12 12 12 12 12 12 12 12 12 12 13 13 13 13 13 13 13 13 13 13 12 12 13 13 13 13 12 12 12 12 11
8 8 8 8 8 9 9 9 9 10 10 11 11 11 12 12 12 12 12 12 12 12 12 13 13 13 13 13 13 13 13 13 13 13 13 13 12 12 11 11 11 11
7 7 7 7 8 8 8 8 8 9 9 10 10 11 11 12 12 12 12 12 12 12 12 12 12 13 13 13 13 13 13 13 13 13 13 12 12 11 11 11 11 10
6 6 6 6 7 7 7 8 8 8 8 9 9 10 10 11 11 11 11 11 12 12 12 12 12 12 12 12 13 13 13 13 13 13 13 12 12 12 12 12 12 11
5 5 5 6 6 6 7 7 7 7 8 8 8 8 9 10 10 10 11 11 11 11 11 11 11 12 12 12 12 12 13 13 12 12 12 12 12 12 12 12 12 12
4 4 5 5 5 5 6 6 6 7 7 7 7 8 8 8 9 9 10 10 10 11 11 11 11 11 11 11 11 12 12 12 12 12 12 12 12 12 12 12 12 12
3 4 4 4 4 5 5 5 6 6 6 6 7 7 7 7 8 8 8 9 9 10 10 10 11 11 11 11 11 11 11 11 11 11 11 11 11 11 11 11 11 11
3 3 3 3 4 4 4 5 5 5 5 6 6 6 7 7 7 7 7 8 8 8 9 9 10 10 10 10 10 10 10 10 10 10 11 11 11 11 11 11 11 11
2 3 3 3 3 4 4 4 4 5 5 5 5 5 6 6 6 7 7 7 7 7 8 8 9 9 10 10 10 10 10 10 10 10 10 10 10 11 11 11 11 11
2 2 2 2 3 3 3 3 3 4 4 4 5 5 5 5 5 6 6 6 7 7 7 7 8 8 9 9 9 9 9 10 10 10 10 10 10 10 10 11 11 11
0 1 1 1 2 2 3 3 3 3 3 4 4 4 4 5 5 5 5 5 6 6 6 7 7 7 8 8 8 8 9 9 9 10 10 10 10 10 10 10 10 10
-1 -1 -0 -0 0 1 1 2 2 3 3 3 3 3 4 4 4 4 4 4 5 5 6 6 6 6 7 7 7 8 8 8 9 9 9 10 10 10 10 10 10 10
-2 -2 -2 -1 -1 -1 -0 1 1 2 2 2 2 3 3 3 4 4 4 4 4 4 5 5 5 6 6 6 6 7 7 7 8 8 9 9 10 10 10 10 10 10
-3 -3 -3 -2 -2 -2 -1 -1 -0 0 1 1 2 2 2 2 3 3 3 4 4 4 4 4 5 5 5 5 6 6 6 6 7 7 8 8 9 9 9 9 9 10
-4 -4 -4 -3 -3 -3 -2 -2 -2 -1 -1 -0 0 1 1 1 2 2 3 3 3 3 3 4 4 4 5 5 5 5 6 6 6 6 6 7 8 8 8 9 9 9
-4 -4 -4 -4 -4 -4 -3 -3 -3 -2 -2 -2 -1 -1 -0 0 0 1 1 2 3 3 3 3 3 4 4 4 4 4 5 5 6 6 6 6 6 7 7 8 8 8
-5 -4 -4 -4 -4 -4 -4 -4 -4 -4 -3 -3 -2 -2 -2 -1 -1 -1 -0 0 1 2 2 3 3 3 3 3 3 3 4 4 5 5 5 6 6 6 6 7 7 7
-5 -5 -5 -5 -4 -4 -4 -4 -4 -4 -4 -4 -4 -3 -3 -3 -2 -2 -2 -1 -1 -0 0 1 2 2 2 2 3 3 3 3 4 4 5 5 5 5 6 6 6 7
-6 -6 -6 -6 -6 -5 -5 -5 -5 -5 -5 -5 -5 -5 -4 -4 -4 -3 -3 -3 -2 -2 -1 -0 0 1 1 1 2 2 2 2 2 3 4 4 5 5 5 5 5 6
-8 -8 -7 -7 -7 -7 -7 -6 -6 -6 -6 -6 -6 -6 -6 -5 -5 -5 -5 -4 -4 -4 -3 -2 -1 -1 -1 -0 0 0 0 0 1 2 2 3 4 4 4 5 5 5
-9 -9 -9 -8 -8 -8 -8 -8 -8 -7 -7 -7 -6 -6 -6 -6 -6 -6 -6 -6 -6 -6 -5 -4 -3 -3 -2 -2 -2 -2 -2 -2 -1 -0 0 1 2 3 3 3 4 4
-10 -10 -10 -10 -9 -9 -9 -9 -8 -8 -8 -8 -8 -7 -7 -7 -7 -7 -7 -7 -8 -8 -8 -7 -5 -4 -5 -4 -4 -4 -4 -4 -3 -3 -2 -1 0 1 1 2 2 2
-11 -11 -10 -10 -10 -10 -10 -10 -9 -9 -9 -9 -9 -9 -8 -8 -8 -7 -7 -8 -9 -9 -8 -8 -7 -6 -6 -6 -6 -6 -6 -6 -6 -5 -4 -3 -2 -2 -1 -0 1 1
-11 -11 -11 -11 -11 -10 -10 -10 -10 -10 -10 -10 -10 -10 -10 -9 -9 -8 -8 -8 -9 -9 -9 -9 -8 -8 -8 -8 -7 -8 -8 -8 -7 -7 -6 -5 -5 -4 -3 -2 -2 -1
-11 -11 -11 -11 -11 -11 -11 -11 -10 -10 -10 -10 -11 -11 -10 -10 -9 -9 -9 -9 -9 -9 -9 -9 -8 -8 -8 -8 -8 -8 -8 -9 -8 -9 -8 -7 -7 -6 -5 -4 -4 -3
-12 -12 -12 -12 -12 -11 -11 -11 -11 -11 -11 -11 -11 -11 -10 -10 -10 -10 -10 -9 -9 -9 -9 -9 -9 -9 -9 -9 -8 -9 -9 -9 -9 -9 -9 -9 -9 -8 -7 -6 -6 -5
Height
1503 1501 1499 1498 1496 1494 1492 1490 1488 1487 1485 1483 1481 1479 1478 1477 1476 1474 1473 1473 1472 1471 1471 1470 1469 1469 1468 1467 1466 1466 1465 1464 1463 1463 1462 1461 1461 1460 1459 1458 1458 1458
1503 1501 1499 1497 1495 1493 1491 1489 1488 1486 1484 1482 1479 1478 1476 1475 1474 1472 1471 1470 1469 1469 1468 1468 1467 1466 1465 1464 1464 1463 1461 1461 1460 1460 1459 1458 1457 1456 1455 1455 1454 1454
1502 1500 1498 1496 1494 1492 1491 1489 1487 1485 1483 1481 1479 1476 1475 1473 1472 1471 1469 1468 1467 1466 1466 1465 1464 1464 1463 1462 1461 1459 1458 1457 1456 1456 1455 1454 1453 1452 1451 1451 1450 1450
1500 1499 1497 1496 1494 1492 1490 1488 1486 1484 1481 1480 1477 1475 1473 1471 1470 1469 1468 1467 1465 1465 1464 1463 1462 1461 1460 1459 1458 1457 1455 1454 1454 1453 1452 1451 1450 1449 1448 1447 1447 1446
1500 1498 1497 1495 1493 1491 1489 1487 1484 1482 1480 1478 1476 1474 1472 1470 1468 1466 1465 1464 1463 1462 1462 1461 1460 1459 1458 1457 1455 1454 1453 1452 1451 1450 1449 1448 1447 1446 1445 1445 1444 1443
1500 1497 1496 1494 1492 1490 1488 1486 1483 1481 1478 1476 1474 1472 1470 1469 1467 1465 1463 1462 1461 1460 1459 1458 1457 1457 1456 1454 1453 1452 1450 1449 1448 1447 1446 1445 1445 1444 1443 1442 1441 1440
1499 1497 1495 1492 1491 1489 1487 1485 1483 1480 1478 1475 1473 1471 1469 1467 1465 1464 1462 1460 1459 1457 1456 1455 1454 1453 1453 1451 1450 1449 1448 1447 1446 1445 1443 1442 1442 1441 1440 1439 1438 1437
1499 1496 1494 1491 1489 1487 1485 1483 1481 1478 1476 1474 1472 1470 1467 1465 1463 1462 1460 1458 1457 1455 1454 1453 1451 1450 1449 1448 1447 1446 1445 1445 1443 1442 1441 1440 1439 1438 1437 1436 1435 1433
1497 1495 1493 1491 1488 1486 1483 1481 1479 1476 1474 1472 1470 1468 1466 1464 1462 1460 1458 1456 1455 1453 1452 1450 1449 1448 1446 1445 1444 1443 1442 1441 1440 1439 1438 1437 1436 1435 1434 1433 1431 1430
1495 1493 1491 1489 1487 1484 1482 1480 1477 1474 1472 1470 1468 1466 1464 1461 1459 1457 1456 1454 1452 1451 1449 1448 1446 1445 1444 1442 1441 1439 1438 1437 1436 1434 1434 1433 1432 1431 1430 1429 1428 1426
1491 1490 1488 1487 1485 1483 1481 1478 1476 1473 1470 1468 1465 1463 1461 1459 1457 1455 1453 1451 1449 1448 1446 1445 1443 1442 1440 1439 1438 1436 1434 1433 1431 1430 1429 1428 1427 1427 1426 1425 1424 1423
1488 1486 1484 1483 1481 1480 1478 1476 1474 1471 1468 1466 1463 1460 1458 1456 1454 1452 1450 1448 1446 1445 1443 1441 1440 1438 1437 1435 1434 1432 1431 1429 1427 1426 1425 1424 1423 1422 1421 1421 1420 1419
1486 1484 1482 1479 1477 1476 1474 1472 1470 1468 1466 1463 1461 1458 1455 1453 1450 1448 1447 1445 1443 1441 1439 1437 1436 1434 1433 1431 1429 1428 1427 1425 1423 1422 1420 1419 1418 1417 1416 1415 1415 1414
1483 1481 1479 1477 1475 1472 1470 1468 1466 1464 1462 1460 1458 1455 1453 1450 1447 1445 1443 1441 1439 1437 1436 1434 1432 1430 1429 1427 1425 1423 1422 1420 1419 1417 1415 1414 1413 1412 1411 1410 1409 1409
1480 1478 1475 1473 1471 1469 1467 1464 1462 1459 1457 1456 1454 1451 1449 1447 1444 1442 1439 1437 1436 1434 1432 1430 1429 1427 1425 1423 1421 1419 1417 1415 1414 1412 1410 1409 1407 1406 1406 1405 1404 1403
1478 1476 1473 1470 1467 1465 1462 1460 1458 1455 1453 1451 1450 1448 1445 1443 1440 1438 1436 1433 1431 1430 1428 1426 1425 1423 1421 1420 1418 1415 1412 1411 1409 1407 1406 1404 1402 1401 1400 1399 1398 1397
1475 1473 1470 1467 1465 1462 1459 1456 1454 1451 1449 1447 1445 1443 1441 1439 1436 1434 1432 1429 1427 1425 1423 1421 1420 1418 1417 1415 1413 1411 1408 1406 1404 1402 1401 1399 1397 1396 1394 1393 1392 1392
1472 1469 1467 1464 1462 1459 1456 1454 1451 1448 1445 1442 1440 1438 1436 1434 1432 1430 1428 1425 1422 1420 1418 1416 1414 1413 1412 1410 1408 1406 1404 1401 1399 1397 1395 1394 1392 1390 1389 1388 1387 1386
1468 1465 1463 1460 1458 1455 1453 1451 1448 1445 1442 1439 1436 1434 1432 1430 1428 1426 1423 1421 1419 1416 1413 1411 1409 1408 1406 1404 1403 1401 1399 1396 1394 1392 1390 1388 1387 1386 1384 1383 1381 1380
1464 1461 1458 1456 1454 1451 1449 1447 1444 1442 1439 1437 1434 1431 1428 1426 1423 1421 1419 1417 1415 1412 1409 1406 1405 1403 1401 1399 1397 1395 1393 1391 1389 1387 1385 1383 1382 1380 1379 1378 1376 1375
1461 1458 1455 1452 1450 1447 1445 1443 1441 1438 1436 1433 1431 1428 1425 1423 1420 1418 1415 1413 1411 1409 1406 1403 1400 1399 1397 1395 1393 1390 1388 1386 1384 1381 1380 1378 1376 1375 1374 1373 1372 1370
1459 1455 1452 1449 1446 1444 1441 1439 1437 1434 1432 1430 1427 1424 1422 1420 1418 1415 1412 1409 1407 1405 1403 1399 1397 1395 1393 1390 1389 1386 1384 1382 1379 1377 1375 1373 1371 1370 1368 1367 1366 1365
1457 1453 1450 1447 1444 1441 1438 1436 1434 1431 1429 1426 1423 1421 1418 1416 1414 1412 1409 1407 1404 1402 1400 1397 1393 1392 1390 1387 1385 1383 1381 1378 1375 1373 1370 1368 1367 1365 1364 1362 1361 1360
1455 1451 1448 1444 1441 1439 1436 1433 1430 1428 1426 1423 1421 1418 1415 1413 1410 1408 1405 1403 1401 1399 1397 1394 1391 1388 1387 1384 1382 1381 1379 1376 1373 1370 1367 1365 1363 1361 1359 1358 1356 1355
1453 1449 1446 1443 1439 1436 1434 1431 1428 1425 1423 1420 1418 1415 1412 1409 1407 1404 1401 1399 1397 1395 1393 1391 1388 1386 1384 1382 1380 1378 1377 1374 1371 1368 1364 1362 1360 1357 1355 1353 1352 1351
1451 1448 1444 1441 1438 1434 1431 1428 1425 1422 1420 1417 1414 1412 1409 1406 1404 1401 1398 1396 1394 1392 1390 1388 1386 1383 1381 1380 1378 1376 1374 1372 1369 1366 1363 1360 1357 1354 1351 1349 1348 1347
Wind_Speed
25 25 24 22 22 21 20 19 19 18 17 17 17 17 18 18 18 18 19 20 21 22 23 23 24 24 25 26 26 27 27 28 29 30 30 31 31 31 31 32 31 30
26 26 26 25 24 23 23 22 22 21 19 18 17 17 17 17 18 18 18 18 19 19 21 22 23 24 25 26 27 28 29 30 31 31 31 31 30 30 30 30 29 27
27 28 28 28 27 26 25 25 24 23 21 19 18 17 17 17 17 17 17 17 17 17 18 18 20 21 22 23 24 26 28 29 30 30 30 30 29 29 28 27 27 26
29 29 29 29 29 28 27 27 26 25 24 22 19 18 17 15 16 16 16 16 17 17 17 17 18 19 20 21 22 24 25 26 27 28 28 29 29 29 28 27 27 27
32 31 30 29 29 29 29 28 27 27 26 24 22 21 19 17 16 16 16 16 16 17 17 18 18 19 20 21 23 24 24 25 25 25 26 27 26 26 25 25 25 26
34 34 33 32 31 31 30 29 29 28 27 26 25 24 22 21 19 18 18 17 17 17 17 18 19 19 20 21 22 24 24 24 24 24 25 25 24 24 24 24 25 25
34 35 36 36 35 34 33 32 31 30 29 29 28 27 26 25 24 22 21 21 20 19 19 19 19 19 19 20 21 22 23 24 24 25 25 26 26 25 25 25 26 26
35 36 36 37 37 37 37 36 34 33 32 32 31 30 29 29 28 27 26 25 24 23 22 21 21 20 20 20 21 22 23 24 24 25 26 27 27 27 27 26 26 26
37 37 37 37 37 37 38 38 37 37 36 35 34 33 33 32 32 31 30 30 29 28 27 26 24 23 23 23 23 23 24 25 25 26 26 27 27 27 27 27 27 27
40 39 38 38 37 37 37 37 38 38 38 38 37 36 35 35 35 34 33 33 33 32 32 31 29 28 26 26 26 26 27 27 27 27 27 27 27 27 27 27 28 28
42 41 40 39 38 38 37 37 37 37 38 38 39 39 38 37 36 36 36 35 35 35 34 34 33 32 31 30 29 29 29 29 29 29 29 29 29 29 29 29 29 29
43 42 41 41 40 39 38 38 37 37 37 37 38 39 39 39 38 37 37 37 36 36 36 36 36 35 35 34 33 33 32 32 32 32 32 31 31 31 31 30 31 31
43 42 41 41 41 40 40 39 38 38 38 37 38 38 39 40 40 39 38 38 38 37 36 36 37 37 37 36 36 36 35 35 34 34 34 33 33 33 33 32 32 32
43 43 42 41 41 41 41 40 40 39 39 39 39 39 39 40 40 40 40 40 39 39 38 37 37 37 37 37 38 38 38 37 37 36 36 36 35 35 34 34 34 34
43 44 43 43 42 42 42 41 41 41 41 40 40 40 40 41 41 41 41 41 41 40 40 39 38 37 37 37 37 38 39 39 39 39 38 38 37 37 36 36 36 36
43 43 44 44 44 44 43 43 43 42 42 42 41 41 41 42 42 42 42 42 41 42 41 41 40 39 38 37 36 37 38 39 40 40 40 39 39 38 37 37 37 37
44 44 44 43 43 43 44 44 44 44 44 44 43 42 42 42 42 42 43 43 42 42 42 42 41 40 39 38 37 37 37 38 39 40 40 40 40 40 39 38 38 38
45 44 44 44 43 43 43 43 44 44 44 44 44 44 43 42 42 42 42 43 43 43 43 42 42 41 39 39 38 38 38 38 39 39 40 40 41 41 41 40 39 39
46 45 45 44 43 43 43 42 42 43 43 44 44 44 44 43 42 42 41 41 42 43 43 43 42 41 39 38 38 38 37 38 38 39 39 40 40 41 41 41 41 40
47 46 45 44 43 43 42 42 41 41 42 42 43 43 43 42 42 41 40 40 40 41 42 43 43 42 40 38 36 36 35 36 37 38 39 40 40 40 41 41 41 40
45 44 44 43 42 42 42 41 40 40 40 40 41 42 41 41 40 40 40 39 38 37 38 41 42 41 40 38 36 34 33 33 34 36 38 39 40 40 40 40 40 40
42 42 42 42 41 41 40 40 39 38 38 38 39 39 39 39 39 39 39 38 36 35 35 37 40 39 37 37 35 33 31 31 32 34 35 37 38 38 38 38 38 38
39 39 40 40 40 40 39 39 38 37 37 37 37 38 39 39 38 38 38 37 35 35 34 34 36 37 36 35 34 30 28 29 30 32 34 35 35 36 36 36 36 36
36 37 37 38 38 38 38 38 37 37 36 35 35 37 38 38 38 38 38 37 36 36 35 34 35 36 35 34 31 27 24 25 27 29 32 33 33 33 34 34 35 35
34 35 36 36 36 37 36 36 36 36 35 35 34 35 36 37 37 36 37 37 36 36 35 35 34 33 33 33 29 25 22 23 25 27 30 31 31 31 32 33 33 33
34 34 34 34 34 35 34 34 34 34 34 35 35 35 35 35 35 35 35 35 35 33 33 32 31 30 31 30 27 23 22 22 23 25 27 28 28 29 31 32 31 31
Wind_Direction
4 2 360 357 356 354 350 346 342 337 333 328 325 324 323 323 321 318 314 308 302 296 289 284 278 275 272 270 268 268 267 268 268 269 269 269 269 269 270 271 270 268
1 359 358 354 352 350 347 345 343 339 334 328 321 319 318 318 319 319 318 315 311 306 301 295 288 284 281 278 277 275 273 272 272 271 270 269 268 268 267 268 267 265
359 357 356 354 350 346 343 341 340 337 333 328 320 316 315 315 315 315 314 313 312 310 307 301 296 291 287 284 281 279 277 276 275 273 272 270 268 266 265 265 265 264
356 355 355 353 350 346 342 339 336 333 331 328 323 318 314 310 309 308 309 308 308 307 305 302 299 296 292 289 286 284 282 281 280 278 275 273 272 271 270 270 270 269
352 352 351 350 348 345 343 339 335 332 329 327 324 320 315 311 305 302 301 300 300 301 300 299 298 296 294 291 289 287 286 284 283 281 278 276 275 276 277 277 277 276
349 347 346 345 344 343 342 340 337 334 330 327 324 321 318 314 309 303 298 294 291 290 290 290 291 292 291 290 288 288 286 284 281 278 276 276 277 279 281 282 282 282
346 344 343 341 341 340 339 337 336 335 332 329 325 322 319 315 312 308 303 298 293 288 285 282 282 282 283 284 284 285 284 283 280 278 276 277 278 279 281 282 282 282
343 341 340 338 337 336 335 334 333 333 332 330 327 324 321 318 315 312 309 305 301 296 290 285 281 278 276 276 276 277 278 278 278 278 279 279 280 282 283 283 283 283
338 337 336 335 334 332 332 331 331 330 329 328 327 325 324 321 318 315 312 309 307 303 299 293 287 282 278 276 274 273 272 272 272 274 276 278 280 282 284 285 285 286
334 333 332 331 330 329 328 328 327 326 326 325 324 323 322 322 320 318 314 311 308 306 303 299 295 289 283 278 276 274 272 272 271 271 272 275 277 279 281 282 282 283
332 331 329 328 327 326 325 324 323 322 322 321 321 320 319 318 318 318 316 314 311 307 304 302 299 295 290 284 279 276 273 272 271 271 272 272 274 275 277 278 279 280
331 330 329 327 325 324 322 320 319 318 317 316 316 316 315 315 314 314 314 313 312 310 307 303 300 298 295 291 286 281 276 273 271 270 269 270 270 271 272 274 275 276
330 328 327 326 325 323 321 319 317 315 313 313 312 311 311 311 311 310 310 310 310 309 308 305 302 299 297 295 292 288 283 279 275 271 269 268 268 268 269 269 270 271
329 328 326 324 323 322 321 319 317 314 312 310 309 308 307 307 307 306 306 306 306 306 305 305 302 300 298 296 294 292 289 285 282 278 274 270 268 268 268 268 268 268
328 327 325 324 323 321 320 319 318 316 314 311 309 307 306 305 304 303 302 302 302 302 301 301 300 299 298 296 294 292 290 289 286 284 281 278 274 271 270 269 270 270
326 325 323 323 322 322 321 320 319 317 316 314 312 309 307 305 304 302 301 300 299 299 298 298 297 297 296 295 294 292 290 289 288 286 285 284 281 278 275 273 273 273
323 322 321 320 320 319 319 319 319 318 317 316 314 312 309 307 305 304 303 301 299 297 297 296 295 295 294 294 293 292 290 288 287 286 286 285 284 283 280 278 277 276
322 321 320 319 317 317 316 317 317 317 318 318 317 315 313 310 308 306 305 303 302 299 297 295 294 293 293 293 292 292 291 289 286 285 284 284 283 283 282 281 280 279
323 321 319 318 318 316 315 315 314 315 316 318 318 318 317 314 312 310 307 305 304 302 299 297 294 293 293 293 291 291 291 289 287 285 283 282 282 281 281 281 281 280
323 322 320 319 319 318 317 316 315 315 315 316 317 317 317 317 315 313 311 309 307 305 303 300 298 297 296 294 292 291 290 289 287 285 283 281 281 280 280 280 280 280
323 322 321 321 320 319 319 318 318 318 317 317 317 317 317 317 316 315 314 312 310 308 306 303 302 302 301 298 296 293 291 289 287 285 283 282 281 280 279 279 278 279
324 323 322 322 322 320 320 319 319 319 319 320 319 318 318 317 316 315 313 312 309 308 307 306 305 306 305 303 301 299 296 293 290 288 285 283 282 282 281 279 279 278
325 324 323 323 322 322 321 321 321 320 320 321 320 319 318 317 316 314 312 311 308 306 305 305 305 307 308 307 306 305 302 299 296 293 290 287 286 285 284 283 281 279
326 325 324 324 323 323 322 322 321 320 320 320 319 317 315 315 314 313 311 310 308 306 305 304 305 306 308 310 310 308 306 305 302 299 295 292 291 290 288 286 284 283
327 326 325 325 325 324 323 322 321 320 320 320 318 316 314 313 313 311 310 309 307 305 305 305 304 304 306 310 312 308 307 308 307 304 300 298 297 294 290 287 286 286
327 326 326 326 325 324 323 323 322 321 321 320 318 316 314 313 312 311 310 308 307 307 306 305 302 299 302 309 310 307 306 310 310 308 307 306 304 300 295 292 291 290